Flag for U.S.A. Weather past 2 weeks in Chicago, Illinois, U.S.A.

Now
44 °F

Scattered clouds.


Feels Like: 40 °F
Forecast: 38 / 44 °F
Wind: 8 mph from Northeast

Location: Chicago Midway Airport


UV Index: 0 (Low)

Visibility: 10 mi


Pressure: 30.20 "Hg

Humidity: 53%

Dew point: 28 °F

Location of ChicagoLocation

Historic Weather in Chicago

°F

Chicago temperature yesterday

Maximum temperature yesterday: 60 °F (at 12:51 AM)
Minimum temperature yesterday: 42 °F (at 10:51 PM)
Average temperature yesterday: 49 °F

Past Weeks' High & Low Weather Summary

 TemperatureHumidityPressure
High80 °F (Apr 12, 2:51 PM)97% (Apr 13, 3:51 PM)30.40 "Hg (Apr 13, 3:51 PM)
Low27 °F (Apr 15, 5:51 AM)15% (Apr 11, 12:51 PM)29.35 "Hg (Apr 14, 2:51 AM)
Average52 °F56%30.01 "Hg
* Reported Apr 8 9:51 AM — Apr 23 9:51 AM, Chicago, Weather by CustomWeather, © 2014

Note: Actual official high and low records may vary slightly from our data, if they occured in-between our weather recording intervals... More about our weather records

Advertising

Historic Weather Conditions — Data for Previous 24 hours

 ConditionsComfort  
Time TempWeatherWind HumidityBarometerVisibility
9:51 AM
Apr 23
44 °FPassing clouds.14 mph55%30.20 "Hg10 mi
8:51 AM42 °FPassing clouds.13 mph57%30.19 "Hg10 mi
7:51 AM40 °FPassing clouds.15 mph60%30.19 "Hg10 mi
6:51 AM38 °FPassing clouds.13 mph68%30.17 "Hg10 mi
5:51 AM37 °FPassing clouds.10 mph70%30.16 "Hg10 mi
4:51 AM37 °FClear.12 mph70%30.14 "Hg10 mi
3:51 AM37 °FClear.10 mph73%30.14 "Hg10 mi
2:51 AM38 °FClear.12 mph70%30.12 "Hg10 mi
1:51 AM39 °FClear.14 mph67%30.11 "Hg10 mi
12:51 AM40 °FClear.14 mph65%30.11 "Hg10 mi
11:51 PM
Apr 22
42 °FClear.10 mph57%30.09 "Hg10 mi
10:51 PM42 °FClear.6 mph57%30.08 "Hg10 mi
9:51 PM43 °FPassing clouds.9 mph56%30.08 "Hg10 mi
8:51 PM44 °FPassing clouds.8 mph53%30.07 "Hg10 mi
7:51 PM44 °FPassing clouds.12 mph55%30.04 "Hg10 mi
6:51 PM45 °FPassing clouds.12 mph56%30.03 "Hg10 mi
5:51 PM47 °FPassing clouds.10 mph54%30.01 "Hg10 mi
4:51 PM48 °FScattered clouds.13 mph54%30.00 "Hg10 mi
3:51 PM50 °FPartly sunny.14 mph52%29.97 "Hg10 mi
2:51 PM53 °FPassing clouds.13 mph48%29.96 "Hg10 mi
1:51 PM57 °FPassing clouds.9 mph41%29.95 "Hg10 mi
12:51 PM54 °FSunny.8 mph45%29.96 "Hg10 mi
11:51 AM53 °FPassing clouds.13 mph45%29.97 "Hg10 mi
Weather by CustomWeather, © 2014

See weather overview